Theta_e
298 298 299 299 299 299 298 298 299 299 298 297 297 296 296 295 295 295 295 295 295 295 295 294 294 293 292 292 292 293 293 293 292 293 294 294 293 292 291 290 290 289 289 288 287 287 286 285 285 286 286 286 285 284 283 283 282 282 282 282 282 282 281 281 281 280 280 280 280
297 298 299 300 300 299 298 298 298 298 298 298 297 297 296 296 296 296 295 294 295 295 294 293 292 292 291 291 292 293 293 293 292 293 293 293 292 292 291 290 289 289 288 288 287 287 286 285 285 286 286 285 285 284 283 282 282 282 282 281 281 281 281 281 280 280 280 280 280
297 297 298 298 298 298 298 298 297 297 297 297 297 296 296 295 296 296 296 295 294 293 292 292 291 290 290 291 292 293 293 293 292 292 293 293 292 291 291 291 289 289 289 288 287 287 287 285 286 287 287 286 285 284 283 281 282 282 282 281 281 281 282 282 281 280 280 280 279
296 297 297 297 297 297 298 298 297 297 297 297 295 294 295 296 296 296 295 293 292 292 292 292 291 290 290 291 291 292 293 294 292 292 292 292 292 291 290 290 289 288 288 288 287 286 286 285 286 287 287 286 284 284 284 283 282 282 282 281 281 281 282 282 281 281 281 281 279
296 296 297 297 297 297 297 298 297 297 297 296 295 295 295 295 295 295 294 293 293 292 292 291 290 290 290 291 291 291 291 292 294 293 292 292 291 291 290 289 289 289 288 287 287 286 285 284 286 286 286 285 285 285 284 282 281 281 281 281 281 281 281 282 281 281 281 281 280
296 296 296 297 297 297 297 298 297 296 296 295 295 295 295 295 295 295 294 295 293 291 290 291 291 290 290 288 290 290 290 291 293 293 292 291 291 290 289 289 289 289 288 287 286 285 285 285 286 286 285 284 284 283 282 281 281 281 280 281 281 281 281 281 281 281 280 280 279
296 296 296 296 296 296 297 297 297 296 294 294 293 294 294 295 294 294 294 294 292 290 290 292 292 291 290 288 289 289 290 290 291 291 291 291 290 290 289 289 288 288 288 287 286 285 284 284 286 286 286 286 284 281 279 279 280 280 280 280 280 280 280 279 280 280 279 279 278
295 295 296 296 296 296 296 296 296 295 294 295 295 294 294 294 293 293 292 291 291 290 291 292 290 290 290 289 289 289 289 289 290 290 290 290 290 289 288 288 288 287 287 286 286 285 284 285 286 286 285 285 284 281 279 278 279 280 280 279 280 279 279 278 278 278 279 278 277
294 294 295 295 295 295 295 295 295 295 295 295 295 295 294 293 293 292 292 292 292 291 291 291 289 289 289 289 289 289 289 289 289 289 290 290 289 288 288 288 287 287 286 285 285 284 284 285 286 285 284 285 284 282 279 278 279 279 279 279 278 278 278 277 277 277 277 277 277
294 294 294 294 294 294 294 294 294 294 294 295 295 294 294 295 294 293 293 292 292 291 290 290 289 288 288 289 289 289 289 289 289 289 289 289 289 288 288 288 287 286 286 284 285 284 284 285 284 283 282 282 282 280 279 278 279 279 278 279 279 278 277 277 277 277 277 277 277
294 294 294 294 294 293 293 293 293 293 294 294 294 293 293 295 294 293 292 292 291 290 289 290 289 289 289 289 289 289 289 289 289 289 288 288 289 289 288 288 287 287 286 285 284 284 284 285 284 282 281 280 280 279 278 278 278 278 278 278 278 278 277 277 276 277 277 277 277
294 293 293 293 292 292 292 292 293 294 294 294 294 293 293 293 292 292 291 291 290 290 289 289 289 289 290 290 289 289 288 287 288 288 288 288 288 288 287 287 287 286 286 284 284 284 284 284 283 282 280 279 279 279 279 278 278 278 277 277 277 277 277 277 276 276 277 277 277
294 293 292 292 291 291 291 292 293 294 294 294 294 294 293 292 291 291 291 290 291 291 290 288 289 290 290 290 289 288 288 287 287 287 288 287 287 287 287 286 286 286 285 284 284 284 284 283 282 282 280 279 279 279 279 278 278 278 277 277 277 277 277 277 276 276 276 276 277
292 291 291 291 290 290 291 292 293 294 294 293 294 293 293 291 290 290 291 291 291 290 289 288 289 290 290 290 289 288 287 287 286 286 286 287 286 286 286 286 285 285 284 284 283 283 283 283 282 282 281 280 279 278 278 278 278 278 278 278 277 277 277 277 276 276 276 276 277
290 290 290 290 290 291 292 292 293 294 294 293 293 293 292 290 290 290 291 291 290 290 289 288 289 290 289 288 288 287 287 286 286 286 286 286 285 285 285 285 284 284 283 283 282 282 282 283 282 282 281 280 279 278 278 278 278 278 278 278 278 278 278 277 276 276 276 276 276
289 289 289 289 289 291 292 292 294 294 294 293 292 291 290 290 289 290 290 290 290 289 288 288 288 288 287 287 287 286 286 286 285 285 285 285 284 284 284 284 283 283 283 282 282 281 281 281 281 281 281 280 279 278 278 278 278 278 278 278 278 278 278 278 277 277 276 276 277
289 288 288 289 289 290 292 293 293 293 293 292 290 290 290 290 289 290 291 291 290 289 288 287 287 287 286 287 286 286 285 285 285 285 285 285 284 283 283 283 283 283 282 282 281 281 280 280 280 280 280 280 279 278 278 278 278 277 277 278 277 277 278 279 278 277 277 276 277
288 288 288 289 289 290 291 292 292 292 292 290 289 288 288 289 289 289 290 291 290 289 287 286 286 285 285 285 285 286 286 286 285 285 285 285 284 284 283 283 283 282 282 282 281 281 280 279 279 278 278 278 278 278 277 277 277 277 277 277 277 277 277 278 278 277 277 276 278
288 288 288 288 289 290 291 291 291 291 289 288 287 287 287 288 288 289 288 288 289 288 288 286 285 284 285 285 284 286 287 286 285 285 285 284 284 283 283 283 282 282 281 281 281 281 280 279 278 278 278 277 277 277 277 276 277 277 277 277 276 276 277 277 277 277 277 277 278
289 289 289 289 289 290 290 291 290 289 288 287 286 286 286 286 287 288 288 288 288 288 287 287 285 284 284 284 284 285 286 287 285 284 284 283 283 283 282 282 281 280 280 280 280 280 279 278 278 278 277 277 277 276 276 276 276 276 276 276 276 276 276 276 276 276 277 277 277
289 289 289 289 289 289 289 289 288 288 287 286 285 285 285 285 286 287 288 287 287 286 286 286 286 285 284 283 283 284 284 286 284 284 283 282 282 282 281 281 280 280 279 279 279 279 278 278 277 277 277 277 277 276 276 276 276 275 275 276 276 276 276 276 276 276 277 277 277
289 289 288 288 288 288 287 287 287 287 286 286 285 284 284 284 286 286 286 286 285 285 285 286 286 285 284 284 284 283 283 283 282 282 282 281 281 281 280 280 279 279 278 278 278 278 277 277 277 277 277 277 277 276 276 276 276 275 275 275 276 276 276 276 276 277 277 277 277
288 288 287 286 286 287 287 286 286 286 286 285 284 284 284 284 285 285 284 284 285 285 285 285 284 284 284 284 283 283 282 281 281 280 280 279 279 279 279 278 278 278 278 278 277 277 277 276 276 276 276 276 276 276 276 277 277 276 276 276 276 276 276 276 277 277 277 277 277
287 287 286 285 285 285 286 286 285 285 285 285 284 284 284 284 283 283 283 282 283 284 284 284 283 283 282 282 282 282 281 281 280 279 278 278 278 277 277 277 278 278 278 278 278 278 278 277 276 276 276 276 276 276 276 277 277 276 276 276 276 276 276 277 277 277 277 277 278
286 285 285 284 284 284 285 285 285 286 286 285 284 283 282 282 282 282 282 281 282 282 282 282 282 281 280 280 280 280 280 281 280 279 278 276 276 276 276 277 277 277 278 279 283 284 284 282 279 278 277 277 277 276 277 277 277 277 277 277 277 277 277 277 277 277 277 277 278
284 284 284 284 284 284 284 285 286 285 285 284 283 282 282 282 281 281 281 281 280 280 280 281 280 280 280 279 279 279 279 280 280 279 278 277 276 275 276 276 276 277 278 282 287 288 289 288 286 282 279 277 277 277 277 277 277 277 277 277 278 278 277 277 277 277 277 278 278
283 283 283 283 283 284 285 285 285 284 284 283 282 282 281 281 280 280 280 280 280 280 279 279 279 281 282 278 278 278 278 279 279 279 278 278 277 276 275 276 276 277 280 285 289 291 292 291 291 288 284 279 278 278 278 278 277 277 277 277 278 278 278 278 278 278 278 279 279
283 283 282 282 283 283 283 283 283 283 283 282 281 281 280 280 279 280 280 280 280 279 279 278 279 280 281 278 278 278 278 278 278 277 277 277 277 276 276 275 275 277 282 288 291 293 293 293 293 292 289 284 280 279 279 279 278 278 278 278 278 278 278 278 279 279 279 279 279
283 282 282 282 282 282 281 281 282 282 281 281 280 280 280 279 279 279 279 279 279 279 278 278 279 279 279 278 278 277 277 277 277 277 277 277 276 276 275 275 275 279 285 291 292 293 293 293 293 293 292 290 284 281 280 279 279 279 278 279 279 279 279 279 279 279 279 279 279
282 282 282 282 282 281 281 281 281 280 280 280 279 279 279 279 279 279 279 279 278 278 278 278 278 278 278 278 277 277 277 276 276 276 276 276 276 275 275 276 276 279 285 292 293 293 292 292 292 292 292 292 288 283 279 279 278 278 279 279 279 278 278 278 278 278 278 279 279
282 282 282 282 281 281 280 280 280 279 279 279 279 279 279 279 279 278 278 278 279 279 280 278 278 278 277 277 276 276 276 276 276 276 276 276 278 277 275 275 275 279 286 292 292 292 292 292 291 291 291 291 289 284 279 279 278 278 278 278 278 278 278 277 277 277 278 277 278
281 282 282 282 281 280 279 279 278 278 278 279 279 279 279 279 278 278 278 278 279 279 279 277 277 277 277 276 276 276 276 275 275 275 275 276 276 275 274 274 274 278 285 292 292 292 291 291 291 290 290 290 289 284 279 278 278 278 278 278 278 277 277 278 278 278 277 277 278
281 281 282 282 281 279 278 278 278 278 278 279 279 279 279 278 278 278 278 278 278 278 278 277 278 277 277 276 276 276 275 275 275 276 277 276 275 275 274 275 274 279 286 291 291 291 290 290 290 290 290 290 288 283 279 278 277 277 277 277 277 277 277 277 278 278 278 278 278
281 281 281 281 280 279 278 277 278 278 279 279 279 279 279 278 278 278 278 278 278 277 277 277 278 277 277 276 276 276 276 277 275 275 274 274 274 274 274 273 273 279 287 290 290 290 290 289 289 289 289 290 286 282 278 277 277 277 277 277 277 277 277 277 278 278 278 278 279
281 281 281 280 279 278 278 277 278 278 279 279 278 278 278 278 278 278 278 279 279 277 276 276 276 276 275 275 275 276 276 276 274 273 273 273 273 274 275 273 274 280 287 289 289 289 289 289 289 289 289 288 283 280 278 277 277 277 277 277 277 277 277 278 278 278 279 278 279
281 281 281 279 278 278 278 278 278 278 279 279 278 278 277 277 277 277 278 280 279 277 275 275 275 275 275 274 274 276 276 274 273 272 272 273 273 273 273 272 273 279 286 288 288 288 288 288 288 288 288 286 281 279 277 277 277 277 277 276 277 277 277 278 279 279 279 279 279
281 281 281 279 279 278 278 278 278 279 279 279 278 277 277 277 276 276 278 280 277 276 274 274 274 274 274 274 274 274 274 273 273 273 273 274 274 273 272 272 272 277 283 287 287 287 287 287 287 287 286 283 279 278 277 277 277 277 277 276 277 277 277 278 279 279 279 279 279
280 281 281 280 279 278 278 278 279 279 279 278 278 277 276 276 275 276 277 280 277 275 274 274 274 274 273 273 273 272 272 273 274 274 273 274 273 272 272 272 271 274 279 285 286 286 286 286 287 287 286 282 279 278 277 277 277 277 277 277 277 277 278 279 279 279 279 279 281
279 280 281 280 279 279 278 278 279 279 278 278 277 276 275 275 274 275 277 279 275 274 274 274 273 272 272 273 272 272 272 272 274 274 273 272 272 274 274 272 272 274 278 283 285 285 286 286 286 287 286 284 279 278 277 277 277 277 277 277 278 278 278 279 279 279 280 280 283
279 279 280 280 279 279 278 278 278 278 277 277 276 275 275 275 275 276 276 274 273 272 273 272 272 272 273 276 273 272 271 270 271 272 273 273 274 277 278 274 272 273 277 282 284 285 285 286 286 286 286 284 280 278 278 277 277 277 277 278 278 278 278 279 279 279 280 280 282
278 278 279 279 279 278 278 277 277 276 276 276 275 275 275 276 274 273 272 271 271 271 272 272 272 273 274 277 274 272 271 270 270 271 272 274 275 278 279 275 273 273 275 279 282 284 284 285 286 286 286 284 280 278 278 277 277 277 277 278 278 279 279 279 279 280 280 279 280
Wind_Speed
10 9 8 8 7 7 6 6 7 6 6 6 6 6 6 6 6 6 5 5 5 5 5 5 5 5 5 7 9 10 10 9 9 9 10 10 9 9 9 8 8 8 8 8 7 7 7 7 6 5 4 4 4 4 4 3 4 5 5 5 5 5 5 6 6 6 5 5 4
11 10 9 9 8 7 6 6 6 6 7 6 6 6 6 6 6 6 6 6 6 5 5 5 5 5 7 9 10 10 10 10 10 10 10 10 9 9 9 8 8 8 9 9 8 7 6 7 6 5 4 4 4 4 4 4 5 5 6 6 5 4 4 5 5 5 5 5 3
11 10 10 9 9 8 7 7 7 8 8 7 6 6 6 6 6 6 6 6 5 5 5 4 4 6 7 9 9 9 10 10 10 10 9 9 9 9 9 8 8 9 9 8 8 7 7 7 6 6 5 4 5 5 4 4 4 5 5 6 4 4 4 4 4 4 4 3 3
11 11 11 11 11 11 10 9 9 9 8 7 6 5 5 6 5 5 5 5 5 5 5 5 5 6 7 8 9 9 9 10 10 10 9 9 9 9 9 9 9 9 9 8 8 8 8 8 6 5 5 5 6 6 5 4 4 4 4 4 4 4 4 4 3 3 3 3 3
12 12 12 12 13 13 11 10 10 9 8 6 5 5 5 5 5 5 5 5 5 5 5 5 5 5 6 7 9 9 9 10 10 10 9 9 9 9 9 9 9 9 9 8 9 9 8 8 6 5 5 5 5 5 4 5 5 4 3 3 3 3 4 3 3 3 3 3 3
12 12 12 12 13 12 11 10 10 9 7 5 6 7 7 6 6 6 6 7 6 5 5 6 5 5 6 7 8 9 9 9 9 9 9 9 8 8 8 9 9 9 8 8 9 8 8 8 6 5 4 4 4 4 4 5 5 4 3 3 3 3 3 3 3 3 3 3 3
12 12 12 12 12 12 11 11 10 8 7 6 7 9 9 8 8 8 8 7 5 4 5 6 6 6 7 7 8 8 8 8 8 8 9 9 8 8 9 9 9 9 8 8 8 8 8 7 5 5 5 4 4 3 4 5 5 5 4 4 3 3 3 3 3 3 3 4 3
11 12 13 13 12 12 12 12 10 8 7 7 9 11 11 10 10 9 8 6 5 5 5 6 7 7 8 8 8 8 8 8 8 8 8 8 8 8 8 8 8 8 8 8 8 8 7 7 6 5 5 5 4 4 4 6 6 6 6 5 3 3 3 3 3 3 4 4 4
9 10 11 12 12 12 12 12 10 10 9 10 11 11 11 10 10 9 8 6 6 6 5 6 7 8 8 9 9 8 8 9 9 9 8 8 8 8 8 8 8 8 8 8 8 9 8 7 6 5 5 5 5 5 5 7 7 7 6 5 3 3 2 2 3 3 4 4 4
10 10 11 11 11 12 11 10 10 10 11 11 11 11 10 10 10 9 8 6 5 5 6 6 7 8 8 9 9 9 8 8 9 9 9 9 9 9 9 8 8 8 8 7 8 8 8 7 6 6 5 5 5 6 7 7 8 7 6 4 4 3 3 2 3 3 4 4 5
12 11 11 11 11 11 10 9 9 10 10 11 11 10 10 10 9 8 7 5 5 6 7 7 8 8 9 9 9 8 8 8 8 8 9 9 9 9 9 9 9 9 9 8 8 8 7 7 7 7 6 5 6 7 7 8 8 8 6 4 4 4 4 3 3 3 4 4 5
13 11 10 10 9 9 9 9 9 9 10 11 11 10 9 9 8 7 6 6 7 7 8 7 8 9 9 8 8 8 8 8 8 8 9 9 9 9 9 9 9 9 9 9 8 8 7 8 8 8 8 7 6 6 7 8 8 8 6 5 4 4 4 4 4 4 4 4 4
12 10 9 9 8 8 9 9 9 9 10 11 11 10 9 8 7 7 7 8 9 8 7 7 8 8 9 8 8 8 8 8 8 8 9 9 9 9 9 9 9 9 9 9 8 8 8 9 9 10 9 8 7 7 8 9 9 8 7 6 5 5 5 5 5 4 4 4 4
10 9 9 8 8 8 9 10 9 9 10 11 11 10 8 7 7 7 8 8 9 7 6 6 7 7 8 8 8 8 8 8 8 9 9 9 8 9 9 8 9 9 8 8 8 9 9 10 10 10 10 10 8 8 8 9 9 8 8 8 7 7 6 6 5 5 4 4 4
9 9 9 8 9 9 9 10 9 9 9 10 10 8 7 6 6 7 7 8 8 7 6 6 6 7 7 8 8 8 8 8 9 9 9 9 8 8 9 8 9 9 8 8 8 9 10 10 11 11 11 10 10 9 8 8 8 8 8 8 8 8 7 6 6 5 5 5 5
9 9 9 9 9 9 9 10 9 8 9 9 8 7 6 6 6 6 7 8 7 6 6 7 7 6 6 7 7 8 8 8 9 9 9 9 9 9 9 9 9 9 9 9 9 9 9 10 10 10 10 10 10 9 9 8 8 8 8 8 8 7 7 7 6 6 6 6 5
10 9 9 9 10 11 11 10 9 8 8 8 7 7 7 6 6 6 7 8 7 6 7 7 7 6 6 6 6 7 7 8 8 9 9 9 9 10 10 10 10 10 10 10 10 10 9 9 8 9 9 9 9 9 9 8 8 8 8 7 7 7 7 7 7 7 6 6 6
10 10 9 10 11 12 12 11 10 9 8 8 7 7 6 6 6 7 7 7 7 8 8 8 7 7 7 7 6 7 7 8 9 9 10 10 10 10 10 10 10 10 10 10 11 11 10 9 8 8 8 8 7 8 8 8 7 7 7 7 7 7 7 7 7 7 6 6 7
10 10 10 11 12 12 12 11 10 9 8 7 6 6 6 7 7 7 7 7 8 9 9 8 7 7 7 8 7 7 8 8 9 10 10 10 10 10 10 10 9 9 10 10 10 10 10 9 9 8 7 7 6 6 6 7 7 7 7 7 7 7 7 7 7 6 6 7 7
11 11 11 12 12 11 11 11 10 8 6 5 5 6 7 7 8 8 8 8 8 8 9 9 8 8 8 8 8 8 8 8 9 10 10 9 9 9 10 9 9 9 9 9 9 9 9 9 8 8 8 7 7 6 6 6 6 6 6 6 6 6 7 7 6 6 6 6 6
11 11 11 11 11 10 10 9 8 6 6 5 6 7 7 7 8 8 9 9 8 8 9 9 9 9 9 9 9 9 8 7 8 9 9 8 9 9 9 9 9 8 8 8 8 8 8 8 8 8 8 8 8 7 7 6 6 6 6 5 5 6 6 6 6 6 6 6 6
10 9 9 9 9 9 8 7 6 6 5 5 6 6 7 7 8 8 8 8 8 8 9 9 10 10 10 10 10 9 8 6 6 7 7 7 7 8 8 7 8 8 8 8 8 8 8 8 8 8 7 7 7 7 7 6 6 6 6 5 5 5 6 6 6 6 6 6 7
7 7 6 7 7 7 7 6 6 6 6 6 6 7 7 8 8 7 7 7 7 7 8 8 8 9 9 9 9 9 7 6 5 5 5 5 5 6 6 6 7 8 8 7 7 7 7 7 7 7 7 7 7 7 7 6 6 6 6 6 6 5 5 5 6 6 6 6 6
6 6 5 5 6 7 7 6 6 7 7 7 7 7 7 7 7 6 6 7 7 8 7 6 6 7 7 7 7 8 7 7 6 5 4 5 5 5 6 6 7 7 7 6 7 8 8 6 6 6 6 6 6 6 6 6 6 6 6 6 6 5 5 5 5 6 6 6 6
7 6 6 6 7 7 7 7 8 8 8 7 7 7 6 6 6 6 6 6 6 6 6 5 5 5 5 5 6 6 7 7 7 6 5 5 5 5 5 5 5 5 5 6 10 11 11 9 7 6 5 5 5 5 5 6 6 7 6 6 6 5 5 5 5 5 6 6 6
7 7 7 7 7 7 8 8 8 8 7 6 6 5 5 5 5 5 5 5 5 5 4 4 4 4 5 5 5 5 6 6 7 7 7 6 5 5 5 5 5 4 5 8 12 14 14 12 11 9 7 5 5 5 5 5 6 7 6 6 6 5 5 5 5 5 6 6 6
7 7 7 7 8 8 8 8 7 6 6 5 6 5 5 4 4 5 5 5 4 3 3 3 3 4 5 4 5 5 5 5 5 6 7 7 7 6 6 5 5 4 6 10 13 14 14 13 13 12 9 6 6 6 6 6 6 6 6 6 6 5 6 6 6 6 6 6 6
7 7 7 7 8 7 7 6 6 6 6 5 6 5 5 5 5 5 5 4 4 3 3 3 3 3 4 4 4 5 5 5 5 5 6 6 7 6 6 5 4 5 7 12 13 14 13 13 12 12 11 9 7 6 6 6 6 6 5 5 5 5 6 6 6 6 6 6 6
8 8 8 8 7 7 6 6 6 6 6 5 5 5 5 5 6 5 5 5 4 4 4 3 3 3 3 4 4 4 4 4 4 4 5 5 5 5 5 5 5 7 9 13 13 13 12 11 10 10 10 10 7 5 5 5 5 5 5 4 5 5 5 6 5 5 5 6 6
7 8 8 8 7 7 6 6 6 6 5 5 6 6 6 6 6 6 6 6 6 5 4 4 4 4 4 4 4 4 4 4 4 4 5 6 6 6 5 6 5 7 10 13 12 11 11 10 9 9 9 8 6 5 5 4 4 5 5 4 5 5 6 6 6 6 6 5 5
7 8 8 8 8 7 6 6 5 6 6 6 7 7 7 7 7 7 7 6 5 5 4 5 5 5 5 4 5 5 5 4 4 5 6 7 8 7 6 6 6 7 9 12 11 10 10 9 8 8 7 7 5 4 4 4 4 4 4 4 5 6 6 5 6 6 6 6 6
7 8 8 8 8 7 6 6 6 6 7 7 8 8 8 8 7 6 6 6 5 5 5 5 5 5 5 5 5 5 5 6 6 6 7 8 7 6 5 5 5 6 8 10 10 9 8 8 7 7 7 7 4 3 4 4 4 4 4 4 5 6 6 5 5 6 6 7 6
7 8 8 8 8 7 7 7 7 7 8 8 8 8 8 7 5 5 5 5 5 5 6 6 7 7 7 6 6 6 6 6 7 7 7 7 6 6 5 5 5 6 8 9 8 8 7 7 6 6 6 6 3 3 4 4 3 3 3 4 4 5 6 6 6 6 6 7 7
8 8 8 8 8 7 7 7 7 8 8 8 8 8 7 7 6 5 5 5 5 5 5 6 6 7 7 6 6 6 6 6 6 6 6 6 6 6 5 4 4 6 8 8 7 7 6 5 5 5 5 5 2 2 4 3 3 3 3 3 4 5 5 6 6 6 7 7 7
8 8 8 8 8 8 8 8 8 8 8 8 7 7 7 6 6 6 5 5 4 4 4 4 4 4 4 4 4 5 6 6 5 5 6 6 6 6 5 4 3 5 7 7 6 5 5 4 4 5 5 4 1 2 3 3 3 3 3 4 4 5 6 6 6 6 7 7 7
8 8 8 8 8 8 8 8 8 8 8 8 7 7 6 5 5 5 5 5 4 4 4 4 4 4 4 3 3 4 5 6 6 5 6 6 6 5 4 3 3 4 5 5 5 4 4 4 4 4 4 2 1 2 3 3 3 3 4 4 5 5 6 6 6 6 6 7 7
8 8 8 8 8 8 8 8 8 8 7 7 6 6 5 4 3 3 3 4 4 4 4 4 4 4 4 4 4 3 4 5 6 6 6 6 6 5 4 3 2 3 4 4 4 3 3 4 4 4 4 2 2 2 2 2 2 3 4 4 5 5 6 5 6 6 7 7 8
7 8 8 8 8 8 8 8 8 8 7 6 5 4 4 3 3 3 3 4 4 4 4 4 4 4 4 4 4 4 4 5 6 6 6 6 5 5 4 4 2 2 3 3 3 3 3 4 4 5 4 2 2 3 3 2 2 3 3 4 4 5 5 5 5 6 7 8 10
6 7 8 8 8 8 8 8 8 7 6 5 4 3 3 3 2 2 2 3 3 4 4 3 3 3 4 5 5 5 4 4 5 5 6 5 5 5 5 4 3 2 3 3 3 3 4 4 5 5 5 3 3 3 3 2 2 3 4 4 4 5 5 5 5 5 6 8 12
6 7 7 8 8 8 8 8 7 6 5 5 4 4 3 3 3 3 3 3 3 3 3 4 4 4 5 6 6 5 4 3 3 3 4 4 5 5 5 4 3 3 3 3 3 3 4 5 6 6 6 3 3 3 3 3 3 3 4 4 4 4 5 5 5 5 6 7 10
5 6 7 7 8 8 8 7 6 5 4 5 5 4 4 4 3 3 3 3 4 4 4 4 5 5 5 6 6 5 5 3 2 2 2 3 3 4 4 3 3 2 2 3 3 4 5 6 7 7 7 4 3 3 3 3 3 4 5 5 5 4 4 5 5 5 5 5 6
Wind_Direction
215 214 214 213 213 214 216 220 220 220 218 216 216 215 213 212 216 217 215 207 211 213 212 207 201 194 185 180 183 189 196 200 201 203 204 203 204 204 203 200 197 194 192 192 186 183 183 184 183 184 185 185 186 187 185 177 171 172 175 180 184 180 178 181 189 191 189 191 190
214 215 215 215 215 216 217 219 220 219 218 217 216 214 212 211 215 217 216 212 213 212 208 204 196 186 180 181 185 189 194 198 200 203 205 206 205 203 200 199 197 194 192 189 185 184 183 182 182 185 188 186 183 186 189 183 171 170 176 185 183 179 178 187 194 191 187 187 184
212 213 213 214 214 214 215 217 218 218 218 219 216 213 211 212 215 217 217 214 212 208 202 200 192 182 179 181 186 190 194 197 198 201 204 207 205 202 199 198 197 195 193 189 188 187 185 181 184 188 190 188 185 188 191 186 174 174 179 187 182 177 181 194 193 187 180 181 177
210 210 211 214 214 215 215 217 218 218 217 217 214 212 212 214 216 218 218 213 208 205 203 198 189 182 180 180 186 191 195 197 196 199 203 207 205 202 200 197 195 195 194 191 190 189 185 181 186 191 192 186 186 191 192 182 178 179 182 182 175 176 184 195 185 176 172 175 174
209 209 210 213 214 215 217 219 219 218 217 213 210 212 215 217 218 219 217 214 211 207 202 192 185 182 182 181 185 189 194 196 197 199 202 206 204 202 199 196 196 195 195 192 191 189 185 181 188 193 192 186 189 192 189 170 172 176 178 171 172 177 183 187 176 168 165 169 171
209 210 211 213 214 216 218 220 220 219 216 207 207 211 216 217 216 216 216 217 212 203 192 184 182 181 181 181 184 188 192 196 198 199 201 204 204 201 198 198 198 196 194 193 191 188 185 182 190 194 192 187 190 188 174 159 166 171 174 173 180 179 176 178 168 160 157 166 173
209 209 211 213 213 214 217 218 219 217 213 206 208 212 215 215 213 213 214 214 205 192 185 184 184 183 182 182 186 189 192 196 199 200 200 202 202 200 199 200 198 197 194 192 189 187 186 184 191 194 193 188 186 176 164 160 165 171 177 184 184 175 169 172 161 156 159 170 180
209 209 210 211 211 213 214 216 215 213 211 212 214 216 216 214 212 212 211 209 202 193 187 187 187 185 184 184 188 190 192 194 198 200 201 201 200 200 199 198 197 197 195 190 187 186 187 188 194 194 190 186 184 177 168 165 167 173 179 186 182 171 160 159 154 156 163 173 184
210 211 211 210 211 212 213 213 211 210 212 216 218 218 216 213 211 210 209 209 204 195 188 189 189 187 185 187 190 191 192 193 197 200 201 201 200 199 198 196 196 197 196 190 187 186 187 190 197 197 191 186 184 177 169 166 169 175 181 183 175 164 153 145 149 156 164 174 189
212 211 209 210 211 211 211 211 210 211 214 219 221 220 217 215 213 211 210 208 199 193 191 193 188 187 188 192 193 194 194 193 196 198 200 201 199 198 197 196 195 196 195 191 188 186 186 191 198 197 192 185 178 171 167 167 171 177 182 180 168 160 156 151 154 161 171 182 195
213 210 208 208 210 209 208 208 211 213 216 222 223 221 218 216 215 212 207 198 192 195 197 193 186 188 192 196 197 196 195 193 194 196 198 201 201 199 198 197 195 194 193 192 188 186 187 194 196 195 191 185 174 168 165 169 172 175 178 174 164 163 166 172 169 172 179 187 198
213 211 208 208 206 204 202 205 211 215 218 223 224 222 219 217 213 208 200 192 197 200 200 191 187 190 195 199 198 197 195 193 193 195 197 200 201 200 198 197 196 194 193 190 187 187 190 196 194 191 189 185 176 169 167 169 171 173 174 171 166 170 179 187 184 182 183 184 198
212 210 208 206 202 199 200 206 212 215 218 222 224 222 219 216 208 200 194 195 201 202 199 191 190 193 196 199 196 194 193 193 193 195 197 200 200 199 198 198 196 195 193 190 188 189 192 195 193 190 188 185 182 176 171 169 171 173 174 173 174 182 191 196 191 186 183 186 202
209 207 205 202 198 197 200 207 212 215 218 221 223 221 218 212 202 194 193 198 203 201 195 190 194 197 199 197 194 192 191 191 192 195 198 199 198 197 196 198 196 194 192 191 190 191 193 195 193 190 187 185 184 179 173 170 172 174 175 177 182 191 198 201 193 186 185 195 209
206 206 203 198 195 198 203 207 213 215 217 220 221 217 212 205 197 193 194 200 203 199 190 188 197 201 201 195 191 189 189 189 191 194 198 199 197 195 195 197 195 194 192 190 191 193 195 195 193 191 188 185 182 178 174 172 174 175 178 181 187 193 198 199 191 188 191 199 212
204 204 201 195 197 200 205 208 212 214 216 218 215 209 202 198 192 190 192 199 200 195 190 192 197 199 198 194 189 186 186 187 190 193 196 199 197 196 196 196 195 194 193 190 191 195 198 196 193 190 187 184 179 176 174 174 175 177 180 184 188 192 195 196 192 192 196 201 213
202 201 198 195 198 202 206 208 211 212 213 214 207 200 195 193 188 190 193 196 194 193 194 197 196 194 192 194 188 185 184 188 191 194 197 199 197 196 197 198 196 194 192 190 191 194 197 196 192 188 185 180 175 172 171 172 175 178 182 186 188 192 195 196 195 195 198 203 214
202 200 197 196 200 204 206 208 209 210 209 206 198 193 190 187 186 189 194 194 191 191 194 199 195 191 189 191 190 187 187 191 195 198 199 199 197 197 197 199 197 194 191 191 191 192 192 191 187 182 178 172 168 166 167 169 173 178 182 186 190 193 196 199 197 198 200 206 218
202 199 197 199 202 204 206 206 207 207 205 199 192 187 186 185 185 187 191 194 191 191 192 195 194 192 191 191 191 193 195 195 198 200 201 199 197 197 198 199 196 193 191 192 191 189 187 184 179 175 169 164 160 160 162 166 172 177 182 185 191 195 199 201 201 201 204 210 219
202 200 200 201 202 204 205 205 205 204 200 193 186 184 185 186 184 186 190 195 193 191 190 191 192 193 193 192 193 196 200 199 198 199 200 198 196 197 197 196 192 190 188 188 187 184 180 177 173 169 164 159 157 157 160 165 171 177 182 186 193 197 201 202 203 205 208 213 220
203 202 202 201 201 202 203 202 200 197 193 189 185 184 184 184 185 189 192 193 190 188 189 192 191 192 193 192 194 198 202 201 197 197 198 196 196 197 195 190 186 184 184 183 180 176 173 171 170 166 162 158 159 160 162 166 172 178 184 191 197 201 202 203 205 208 212 216 221
204 202 199 197 197 197 196 195 192 191 190 189 186 185 183 185 190 193 193 189 185 187 191 195 193 192 192 193 195 198 200 198 196 195 195 193 195 194 189 181 177 176 176 177 174 171 168 168 166 163 160 158 161 162 164 166 173 180 188 196 202 205 207 207 209 212 216 220 224
201 196 193 190 189 188 188 185 185 186 189 190 188 186 186 189 192 193 191 186 187 190 194 196 195 194 193 192 192 192 192 191 192 192 189 187 187 183 178 171 171 173 174 175 169 165 162 162 161 160 158 158 161 163 166 170 175 182 190 198 205 209 213 214 215 218 221 225 228
190 184 181 177 178 179 180 179 181 186 190 192 189 187 187 190 190 188 187 187 191 194 196 197 195 192 190 189 187 186 185 185 186 184 182 178 174 169 167 166 171 173 174 172 170 167 164 159 159 158 159 158 161 165 170 175 180 185 190 198 205 212 218 222 221 223 227 230 233
178 174 170 168 171 173 175 177 182 188 191 191 186 184 184 186 183 183 184 189 193 194 194 193 189 185 182 181 181 180 180 181 180 177 173 171 165 161 161 166 171 172 171 172 176 174 170 163 161 160 160 161 163 168 175 182 185 188 192 196 203 212 222 231 231 231 231 234 235
168 166 166 167 168 171 175 181 185 188 188 185 180 179 180 179 176 176 180 186 190 189 187 184 181 177 174 171 172 175 178 180 177 174 170 167 163 161 163 167 170 169 171 178 181 179 175 170 166 162 161 162 167 172 179 188 190 191 192 196 201 208 219 233 238 238 236 235 234
163 165 166 164 165 172 179 183 182 181 180 175 174 174 173 166 165 168 175 181 181 179 175 174 176 173 169 161 166 172 177 179 175 172 169 166 165 166 168 171 170 171 177 184 184 183 181 178 175 170 166 165 170 176 181 188 190 191 192 195 200 206 215 227 235 239 239 238 234
165 164 161 159 166 173 176 173 173 174 174 170 168 165 159 153 157 164 171 174 169 166 167 170 171 164 157 155 168 173 175 174 171 168 166 163 164 166 168 171 173 178 184 187 187 186 186 186 187 183 177 170 172 176 180 183 185 186 189 194 199 205 212 221 228 234 237 239 237
163 159 157 160 167 168 166 164 170 171 168 162 157 152 148 150 158 163 167 167 167 170 172 171 160 151 151 162 170 170 168 167 164 160 158 159 162 165 167 170 176 184 189 190 189 188 189 191 196 198 194 182 173 171 175 177 178 180 185 191 196 202 209 216 223 228 232 237 240
158 156 157 161 163 162 162 165 166 163 156 149 145 145 147 153 161 166 170 171 175 176 172 158 152 157 165 168 164 162 163 164 158 156 157 161 165 168 172 174 179 189 192 191 189 189 190 193 198 206 210 203 177 161 158 166 170 176 184 191 196 201 207 214 219 224 230 235 241
156 156 157 159 160 160 161 161 155 149 145 142 144 148 154 161 169 174 176 176 175 169 158 146 153 162 167 161 157 160 163 161 158 160 165 169 170 171 172 174 180 191 195 192 189 189 191 194 198 206 213 220 197 168 153 159 167 176 184 193 198 202 207 212 217 223 228 232 238
156 156 156 158 159 158 155 148 145 143 143 145 150 156 163 169 174 176 175 171 164 156 152 152 161 165 165 158 160 162 163 162 165 169 171 171 169 168 168 173 181 192 195 191 188 188 190 193 199 206 215 226 215 180 153 155 165 173 183 192 199 203 207 213 219 224 227 230 234
156 157 157 157 156 152 147 143 143 144 147 151 158 163 168 171 171 170 167 163 158 157 160 165 169 170 168 165 165 165 166 166 169 170 170 167 162 160 162 173 183 193 194 189 186 185 188 193 201 210 220 229 217 164 142 146 155 166 179 193 200 206 209 214 221 226 229 231 233
158 157 156 155 151 147 144 143 145 147 150 155 163 168 170 169 168 167 167 165 160 159 162 166 169 169 167 164 164 165 166 166 163 161 159 156 153 153 158 173 190 196 193 187 184 184 187 194 204 216 227 234 211 143 133 141 151 167 186 201 209 212 214 218 223 228 231 233 236
158 156 154 152 147 145 144 144 146 148 153 159 167 171 172 170 170 169 168 164 155 149 147 152 152 150 148 148 152 156 158 158 155 153 151 148 147 149 156 171 193 198 193 184 182 183 188 197 209 224 234 240 188 136 137 148 165 185 202 214 221 224 225 226 229 232 233 234 237
158 155 152 149 146 144 145 145 147 151 157 164 169 173 174 173 171 166 161 155 145 138 135 133 132 133 136 138 142 149 154 154 151 150 148 147 146 149 155 168 191 198 193 181 181 184 193 206 220 232 237 229 149 138 149 163 183 201 214 224 231 233 233 233 235 236 236 237 237
157 153 149 147 145 145 146 146 149 154 162 169 172 173 172 169 160 153 147 145 137 136 136 134 137 143 148 148 145 142 145 147 146 147 149 151 150 150 154 163 185 201 199 185 183 190 202 217 230 237 237 209 158 154 163 177 196 211 222 231 237 237 236 236 237 238 238 237 237
155 150 147 145 145 146 146 147 152 159 165 169 168 164 159 150 140 137 141 142 136 138 141 138 143 147 147 141 130 123 124 136 142 146 150 155 155 152 151 157 181 206 213 199 195 203 216 228 239 242 237 198 170 169 175 187 206 221 231 238 243 242 239 238 238 239 239 237 241
153 148 145 144 145 146 148 151 157 160 161 158 150 141 132 124 118 118 121 120 120 128 135 135 134 132 129 125 117 112 113 121 134 143 150 157 160 156 151 151 172 200 216 212 211 220 233 243 250 253 250 229 188 175 178 192 215 231 240 244 250 249 245 240 239 239 239 237 244
149 145 142 142 145 147 150 153 153 151 146 140 132 126 119 114 104 94 86 80 86 99 111 116 118 121 123 123 118 115 112 107 110 127 143 155 164 162 155 146 164 189 210 220 228 240 251 257 261 262 259 244 197 179 182 196 223 238 245 247 250 252 249 242 238 237 238 238 245
140 138 138 139 142 144 145 144 139 131 123 121 121 119 115 108 98 86 76 71 74 81 92 103 110 116 120 123 120 119 117 110 98 106 126 145 161 161 154 143 161 181 208 232 246 256 261 263 264 264 262 249 208 186 186 201 227 241 246 247 246 249 251 249 243 241 240 239 243